Probability
0 0 0 0 0 0 0 0 1 1 1 0 0 0 0 0 0 0 0 0 0 0 0 0 0 0 0 0 0 0 0 0 0 0 0 0 0 0 0 0 0 0 0
0 0 0 0 0 0 0 0 0 0 0 0 0 0 0 0 0 0 0 0 0 0 0 0 0 0 0 0 0 0 0 0 0 0 0 0 0 0 0 0 0 0 0
0 0 0 0 0 0 0 0 0 0 0 0 0 0 0 0 0 0 0 0 0 0 0 0 0 0 0 0 0 0 0 0 0 0 0 0 0 0 0 0 0 0 0
0 0 0 0 0 0 0 0 0 0 0 0 0 0 0 0 0 0 0 0 0 0 0 0 0 0 0 0 0 0 0 0 0 0 0 0 0 0 0 0 0 0 0
0 0 0 0 0 0 0 0 0 0 0 0 0 0 0 0 0 0 0 0 0 0 0 0 0 0 0 0 0 0 0 0 0 0 0 0 0 0 0 0 0 0 0
0 0 0 0 0 0 0 0 0 0 0 0 0 0 0 0 0 0 0 0 0 0 0 0 0 0 0 0 0 0 0 0 0 0 0 0 0 0 0 0 0 0 0
0 0 0 0 0 0 0 0 0 0 0 0 0 0 0 0 0 0 0 0 0 0 0 0 0 0 0 0 0 0 0 0 0 0 0 0 0 0 0 0 0 0 0
0 0 0 0 0 0 0 0 0 0 0 0 0 0 0 0 0 0 0 0 0 0 0 0 0 0 0 0 0 0 0 0 0 0 0 0 0 0 0 0 0 0 0
0 0 0 0 0 0 0 0 0 0 0 0 0 0 0 0 0 0 0 0 0 0 0 0 0 0 0 0 0 0 0 0 0 0 0 0 0 0 0 0 0 0 0
0 0 0 0 0 0 0 0 0 0 0 0 0 0 0 0 0 0 0 0 0 0 0 0 0 0 0 0 0 0 0 0 0 0 0 0 0 0 0 0 0 0 0
0 0 0 0 0 0 0 0 0 0 0 0 0 0 0 0 0 0 0 0 0 0 0 0 0 0 0 0 0 0 0 0 0 0 0 0 0 0 0 0 0 0 0
0 0 0 0 0 0 0 0 0 0 0 0 0 0 0 0 0 0 0 0 0 0 0 0 0 0 0 0 0 0 0 0 0 0 0 0 0 0 0 0 0 0 0
0 0 0 0 0 0 0 0 0 0 0 0 0 0 0 0 0 0 0 0 0 0 0 0 0 0 0 0 0 0 0 0 0 0 0 0 0 0 0 0 0 0 0
0 0 0 0 0 0 0 0 0 0 0 0 0 0 0 0 0 0 0 0 0 0 0 0 0 0 0 0 0 0 0 0 0 0 0 0 0 0 0 0 0 0 0
0 0 0 0 0 0 0 0 0 0 0 0 0 0 0 0 0 0 0 0 0 0 0 0 0 0 0 0 0 0 0 0 0 0 0 0 0 0 0 0 0 0 0
0 0 0 0 0 0 0 0 0 0 0 0 0 0 0 0 0 0 0 0 0 0 0 0 0 0 0 0 0 0 0 0 0 0 0 0 0 0 0 0 0 0 0
0 0 0 0 0 0 0 0 0 0 0 0 0 0 0 0 0 0 0 0 0 0 0 0 0 0 0 0 0 0 0 0 0 0 0 0 0 0 0 0 0 0 0
0 0 0 0 0 0 0 0 0 0 0 0 0 0 0 0 0 0 0 0 0 0 0 0 0 0 0 0 0 0 0 0 0 0 0 0 0 0 0 0 0 0 0
0 0 0 0 0 0 0 0 0 0 0 0 0 0 0 0 0 0 0 0 0 0 0 0 0 0 0 0 0 0 0 0 0 0 0 0 0 0 0 0 0 0 0
0 0 0 0 0 0 0 0 0 0 0 0 0 0 0 0 0 0 0 0 0 0 0 0 0 0 0 0 0 0 0 0 0 0 0 0 0 0 0 0 0 0 0
0 0 0 0 0 0 0 0 0 0 0 0 0 0 0 0 0 0 0 0 0 0 0 0 0 0 0 0 0 0 0 0 0 0 0 0 0 0 0 0 0 0 0
0 0 0 0 0 0 0 0 0 0 0 0 0 0 0 0 0 0 0 0 0 0 0 0 0 0 0 0 0 0 0 0 0 0 0 0 0 0 0 0 0 0 0
0 0 0 0 0 0 0 0 0 0 0 0 0 0 0 0 0 0 0 0 0 0 0 0 0 0 0 0 0 0 0 0 0 0 0 0 0 0 0 0 0 0 0
0 0 0 0 0 0 0 0 0 0 0 0 0 0 0 0 0 0 0 0 0 0 0 0 0 0 0 0 0 0 0 0 0 0 0 0 0 0 0 0 0 0 0
0 0 0 0 0 0 0 0 0 0 0 0 0 0 0 0 0 0 0 0 0 0 0 0 0 0 0 0 0 0 0 0 0 0 0 0 0 0 0 0 0 0 0
0 0 0 0 0 0 0 0 0 0 0 0 0 0 0 0 0 0 0 0 0 0 0 0 0 0 0 0 0 0 0 0 0 0 0 0 0 0 0 0 0 0 0
Wind_Speed
5 4 5 4 3 2 1 1 1 1 2 2 3 4 4 4 4 5 6 6 6 6 6 6 7 7 5 5 5 5 5 6 8 6 4 5 6 7 6 6 7 7 7
5 5 5 5 4 4 3 2 1 1 1 1 2 2 3 3 3 3 5 5 6 6 6 6 7 6 7 6 5 6 5 6 7 8 5 5 7 7 6 7 6 6 7
6 6 6 6 6 6 5 4 2 1 1 1 0 1 2 2 2 3 3 4 4 5 6 6 7 7 7 5 6 6 6 5 5 6 6 5 5 4 5 5 6 5 5
7 6 7 7 6 6 5 5 4 3 2 1 1 0 1 1 1 2 3 4 4 4 5 5 6 6 7 7 6 7 6 6 5 5 5 5 4 4 4 4 4 4 4
7 7 7 7 6 6 6 5 5 5 4 3 2 2 1 1 2 2 3 4 5 6 6 6 6 6 7 6 6 6 6 6 5 5 5 5 5 4 5 4 5 4 5
6 6 6 6 6 6 6 6 6 6 5 4 4 2 2 1 3 4 3 4 5 6 6 6 6 7 6 7 7 7 7 7 7 6 6 7 7 7 5 5 4 4 5
6 6 6 6 7 6 6 6 6 6 5 5 3 3 2 2 4 4 5 4 5 5 5 5 4 5 6 7 7 8 8 8 8 7 7 7 7 7 6 7 6 6 5
5 6 6 6 6 7 7 7 6 6 5 4 4 3 3 3 4 4 5 4 4 4 4 5 5 5 5 6 7 7 7 7 7 7 7 7 7 7 7 7 6 3 2
5 6 6 6 6 7 7 7 6 6 5 4 4 4 4 3 4 5 5 3 3 4 4 5 5 5 6 7 7 7 7 6 6 7 8 8 8 8 6 3 3 3 2
5 5 6 6 6 6 6 6 5 5 4 4 4 4 4 4 5 5 5 3 4 4 4 5 5 6 8 7 6 6 7 6 5 5 5 5 5 5 5 5 5 4 2
5 5 5 5 5 5 5 5 5 4 4 4 4 4 4 4 5 5 5 3 4 4 4 4 4 7 8 7 7 6 6 6 4 4 3 3 3 2 2 2 2 3 2
4 4 5 5 5 4 5 5 5 5 5 5 4 5 4 4 4 5 6 6 5 4 4 4 5 7 7 7 6 6 6 4 2 2 2 2 2 2 1 1 1 1 1
4 4 4 5 4 5 5 5 4 4 4 4 4 5 5 4 4 6 6 7 7 5 4 7 7 7 6 4 5 5 4 2 2 2 2 2 2 2 1 1 2 3 4
4 4 4 4 4 4 4 4 4 4 4 4 4 5 5 5 4 4 4 4 5 5 4 5 5 4 4 4 3 2 2 2 2 2 2 2 2 2 1 1 0 1 2
4 4 4 4 4 4 4 4 4 4 5 5 4 4 5 5 6 9 7 5 4 4 5 3 2 2 2 2 2 2 2 2 1 1 1 1 1 1 1 1 1 0 1
3 3 3 3 3 4 4 4 4 5 7 7 7 6 5 7 10 9 8 8 7 6 3 2 2 2 2 2 2 3 2 2 2 2 1 1 1 0 0 1 0 1 2
4 3 3 3 3 4 4 4 5 5 5 5 7 8 8 10 9 7 7 6 4 4 2 2 2 2 2 2 2 2 3 2 2 1 1 1 1 0 0 0 0 1 1
4 4 4 3 3 3 4 4 4 5 5 5 5 7 8 9 8 7 6 4 2 3 2 2 2 2 2 2 2 2 2 2 2 1 1 1 1 0 1 1 1 1 2
4 3 3 3 3 3 3 3 4 4 4 5 4 5 7 7 7 7 5 3 2 3 3 3 2 2 2 2 2 2 2 2 2 2 1 1 1 0 1 1 1 2 2
3 4 4 3 3 3 3 3 3 4 4 4 4 4 5 5 4 4 4 3 3 3 3 3 3 2 2 2 2 2 2 2 2 1 1 1 1 1 1 1 1 2 1
3 3 4 4 3 3 3 3 3 3 4 4 4 4 6 3 3 3 3 3 3 3 3 3 3 2 2 2 2 2 2 2 1 1 1 1 1 1 1 1 2 2 2
3 3 3 4 3 3 3 3 3 3 4 4 4 4 5 3 3 3 3 3 3 3 3 3 3 2 2 2 2 2 2 2 1 1 1 1 0 0 1 1 1 2 2
3 3 4 4 3 4 4 3 3 3 4 4 4 3 3 3 3 3 3 3 3 3 3 3 3 2 2 2 2 2 2 2 2 1 1 1 0 0 1 1 2 2 2
4 4 4 4 3 3 4 4 3 3 4 4 4 3 3 3 3 3 3 3 3 3 3 3 3 3 4 3 2 2 2 2 2 1 1 1 1 1 1 1 1 2 2
4 4 4 4 4 4 4 4 4 4 4 4 4 4 3 3 3 3 3 3 3 3 3 3 3 3 3 4 3 3 3 3 3 2 1 1 2 1 1 2 2 2 2
4 4 4 4 4 4 4 4 4 4 4 4 4 4 4 3 3 3 3 3 3 3 3 3 3 4 4 3 3 4 4 3 3 2 1 1 1 1 2 2 2 2 3
Wind_Direction
22 22 23 13 2 39 49 19 301 286 237 226 232 231 226 232 231 223 222 220 227 230 231 233 234 237 238 236 242 246 247 248 255 264 271 265 251 248 249 251 250 248 244
26 28 22 14 23 43 45 23 349 325 281 240 231 242 238 236 236 233 233 230 230 233 236 236 238 239 244 243 241 246 250 255 259 265 269 264 258 248 247 250 254 253 250
27 31 27 24 28 31 28 22 23 12 357 358 288 264 250 236 232 238 242 244 245 246 245 241 241 239 242 246 249 248 249 256 257 260 271 271 271 257 255 257 255 257 261
23 26 24 22 24 24 22 20 18 13 8 4 4 282 288 268 258 258 252 250 253 255 255 254 252 246 247 248 248 251 255 257 259 257 262 269 276 269 257 252 258 259 257
19 20 18 14 14 17 18 16 14 15 13 23 24 17 3 359 344 316 282 265 260 257 255 254 254 254 256 256 257 255 257 256 257 258 258 265 264 257 250 247 250 256 261
18 15 13 13 15 14 13 12 13 12 14 21 18 6 356 348 350 337 313 274 264 260 258 257 253 245 251 257 261 262 260 256 258 256 257 255 256 254 249 245 242 248 253
13 9 10 11 14 10 8 10 10 6 11 16 5 353 340 346 349 339 327 287 271 266 265 266 265 263 261 258 261 262 257 258 256 254 258 258 257 255 245 243 241 245 255
7 7 5 6 7 6 8 8 4 360 1 1 356 345 335 339 345 332 321 286 284 290 289 287 283 275 270 275 269 264 263 262 262 258 259 263 264 259 245 241 243 255 302
1 358 356 357 360 1 2 358 354 351 350 348 343 339 329 326 342 332 322 293 295 296 294 292 290 290 294 294 275 268 271 275 273 274 278 278 274 266 251 230 215 215 254
346 344 347 349 352 354 350 344 342 341 339 335 333 329 322 318 332 333 325 294 295 294 292 288 289 299 305 300 279 271 270 280 289 295 294 290 278 253 235 225 213 211 221
331 333 340 343 345 344 341 338 337 338 339 337 328 328 326 321 321 328 327 306 296 294 292 291 292 306 305 302 295 277 283 294 279 279 288 292 292 272 259 267 251 216 206
324 330 336 338 340 336 337 338 339 340 341 343 338 334 332 322 317 318 319 314 310 290 287 290 296 305 306 302 299 304 302 300 281 282 285 291 296 295 308 325 339 8 7
320 326 329 332 336 336 333 334 334 336 335 334 333 329 330 328 323 322 316 314 312 297 289 292 297 300 299 293 309 314 300 284 275 272 277 295 306 305 317 15 42 61 53
308 314 318 322 328 331 328 325 327 328 329 328 328 325 325 325 329 330 319 310 306 302 297 294 295 299 301 313 317 312 302 286 270 263 282 303 321 320 320 336 99 104 78
297 304 311 315 319 320 320 319 319 319 324 320 319 321 322 321 328 331 326 317 317 316 312 298 300 305 315 329 327 325 327 328 325 316 304 307 323 329 335 3 29 64 109
292 302 305 308 311 314 317 319 320 319 329 334 335 333 322 324 328 328 327 329 328 328 322 311 315 320 322 327 328 330 332 337 332 322 302 292 287 291 335 13 35 94 115
285 293 295 297 302 308 312 316 319 322 328 335 342 342 342 340 339 338 339 338 339 347 341 332 331 330 329 332 333 329 330 334 332 316 300 279 251 236 202 165 120 112 113
282 284 287 288 296 299 302 306 309 314 319 323 332 338 343 345 348 350 355 359 356 359 345 335 333 332 328 327 329 329 331 332 332 326 325 313 275 195 169 165 154 140 136
273 277 281 287 288 289 292 297 301 305 309 314 325 334 341 341 349 1 5 359 344 341 340 334 331 330 327 326 330 332 331 331 338 340 340 355 360 66 116 126 123 131 130
264 277 286 283 281 284 288 291 295 302 306 310 318 329 336 343 347 351 353 344 337 332 332 329 327 324 326 327 331 334 336 337 343 350 353 7 9 24 93 109 120 127 123
266 266 270 275 272 276 282 284 286 290 296 302 306 322 336 326 323 329 332 331 326 324 324 322 318 319 325 327 325 327 329 328 334 338 346 357 8 27 59 86 102 107 109
257 261 263 268 273 273 278 280 281 283 290 294 301 312 319 317 316 319 319 319 320 319 317 311 308 313 321 317 310 312 313 315 319 314 314 331 2 73 98 108 107 112 117
252 258 262 265 269 276 276 275 278 280 284 287 292 298 300 302 309 313 314 316 318 318 317 314 313 317 327 324 315 302 290 292 294 277 248 241 239 187 147 140 139 138 133
244 250 256 261 265 268 271 274 275 275 277 280 283 284 286 289 293 301 306 309 312 313 316 314 311 318 327 326 321 317 311 316 312 273 237 215 214 202 170 157 158 155 146
241 246 250 254 258 264 270 272 273 272 271 273 278 280 282 284 286 292 298 302 305 305 309 307 303 308 313 316 316 314 318 329 328 313 242 215 205 199 184 171 165 159 155
243 246 248 251 254 256 261 266 268 268 268 270 272 274 275 277 281 285 288 292 298 297 297 295 300 303 301 294 295 302 313 320 323 319 299 232 205 191 179 176 170 168 163